This demonstration page uses our WeatherBlox Daily Observations layout. Learn more.

Left ArrowRight Arrow

44.8408, -93.29828

Hourly Observations for December 2, 2019

Temp ( °F °C ) Dew Point ( °F °C ) Humidity (%) Winds ( mph kmh ) Pressure ( in mb ) Visibility ( mi km ) Precip ( " mm )
12:53 am 00:53 Clear 18 -7.8 11 -11.7 74 74 NNW 8 13 30.13 1020 10 16 0.00 0.00
1:53 am 01:53 Clear 15 -9.4 9 -12.8 77 77 NW 7 11 30.16 1021 10 16 0.00 0.00
2:53 am 02:53 Clear 15 -9.4 9 -12.8 77 77 NW 7 11 30.18 1022 10 16 0.00 0.00
3:53 am 03:53 Clear 15 -9.4 10 -12.2 80 80 Calm 30.18 1022 10 16 0.00 0.00
4:53 am 04:53 Clear 13 -10.6 9 -12.8 84 84 Calm 30.19 1023 10 16 0.00 0.00
5:53 am 05:53 Clear 15 -9.4 9 -12.8 77 77 N 5 7 30.19 1022 10 16 0.00 0.00
6:53 am 06:53 Clear 13 -10.6 9 -12.8 84 84 Calm 30.19 1022 10 16 0.00 0.00
7:53 am 07:53 Sunny 13 -10.6 9 -12.8 84 84 W 5 7 30.20 1023 10 16 0.00 0.00
8:53 am 08:53 Sunny 14 -10 10 -12.2 84 84 Calm 30.18 1022 10 16 0.00 0.00
9:53 am 09:53 Sunny 21 -6.1 16 -8.9 81 81 WSW 3 6 30.19 1022 10 16 0.00 0.00
10:53 am 10:53 Mostly Sunny 23 -5 15 -9.4 72 72 SW 5 7 30.18 1022 10 16 0.00 0.00
11:53 am 11:53 Partly Cloudy 22 -5.6 14 -10 71 71 S 5 7 30.16 1021 10 16 0.00 0.00
12:53 pm 12:53 Partly Cloudy 24 -4.4 15 -9.4 68 68 S 5 7 30.12 1020 10 16 0.00 0.00
1:53 pm 13:53 Mostly Cloudy 26 -3.3 15 -9.4 63 63 SSW 6 9 30.11 1020 10 16 0.00 0.00
2:53 pm 14:53 Mostly Cloudy 26 -3.3 15 -9.4 63 63 SSW 6 9 30.08 1019 10 16 0.00 0.00
3:53 pm 15:53 Mostly Cloudy 26 -3.3 15 -9.4 63 63 SSW 7 11 30.06 1018 10 16 0.00 0.00
4:53 pm 16:53 Cloudy 26 -3.3 15 -9.4 63 63 S 8 13 30.04 1017 10 16 0.00 0.00
5:53 pm 17:53 Mostly Cloudy 24 -4.4 14 -10 65 65 VRB 7 11 30.02 1017 10 16 0.00 0.00
6:53 pm 18:53 Mostly Cloudy 23 -5 14 -10 68 68 SE 7 11 29.99 1016 10 16 0.00 0.00
7:53 pm 19:53 Mostly Cloudy 24 -4.4 15 -9.4 68 68 S 9 15 29.96 1015 10 16 0.00 0.00
8:53 pm 20:53 Mostly Cloudy 24 -4.4 17 -8.3 75 75 SSE 5 7 29.94 1014 10 16 0.00 0.00
9:53 pm 21:53 Mostly Cloudy 26 -3.3 17 -8.3 69 69 S 6 9 29.89 1012 10 16 0.00 0.00
10:53 pm 22:53 Mostly Cloudy 26 -3.3 18 -7.8 71 71 S 3 6 29.87 1012 10 16 0.00 0.00
11:53 pm 23:53 Mostly Clear 24 -4.4 17 -8.3 75 75 SSE 6 9 29.83 1010 10 16 0.00 0.00

Powered by AerisWeather